Time,TemperatureF,DewpointF,PressureIn,WindDirection,WindDirectionDegrees,WindSpeedMPH,WindSpeedGustMPH,Humidity,HourlyPrecipIn,Conditions,Clouds,dailyrainin,SoftwareType,DateUTC
2013-02-24 00:01:00,33.0,17.0,-100.00,NNW,335,5.0,9.0,52,-99.99,,,0.00,,2013-02-24 07:01:00,
2013-02-24 00:11:00,33.0,19.0,-100.00,WSW,245,3.0,8.0,55,-99.99,,,0.00,,2013-02-24 07:11:00,
2013-02-24 00:21:00,33.0,19.0,-100.00,WSW,245,3.0,8.0,55,-99.99,,,0.00,,2013-02-24 07:21:00,
2013-02-24 00:31:00,33.0,19.0,-100.00,WSW,245,3.0,8.0,55,-99.99,,,0.00,,2013-02-24 07:31:00,
2013-02-24 00:41:00,33.0,19.0,-100.00,WSW,245,3.0,8.0,55,-99.99,,,0.00,,2013-02-24 07:41:00,
2013-02-24 00:51:00,32.0,20.0,-100.00,WSW,255,4.0,6.0,63,-99.99,,,0.00,,2013-02-24 07:51:00,
2013-02-24 01:01:00,32.0,20.0,-100.00,WSW,255,4.0,6.0,63,-99.99,,,0.00,,2013-02-24 08:01:00,
2013-02-24 01:11:00,32.0,22.0,-100.00,West,265,5.0,9.0,68,-99.99,,,0.00,,2013-02-24 08:11:00,
2013-02-24 01:22:00,32.0,22.0,-100.00,West,265,5.0,9.0,68,-99.99,,,0.00,,2013-02-24 08:22:00,
2013-02-24 01:31:00,32.0,22.0,-100.00,West,265,5.0,9.0,68,-99.99,,,0.00,,2013-02-24 08:31:00,
2013-02-24 01:41:00,32.0,22.0,-100.00,West,265,5.0,9.0,68,-99.99,,,0.00,,2013-02-24 08:41:00,
2013-02-24 01:53:00,32.0,22.0,-100.00,West,270,6.0,9.0,65,-99.99,,,0.00,,2013-02-24 08:53:00,
2013-02-24 02:01:00,32.0,22.0,-100.00,West,270,6.0,9.0,65,-99.99,,,0.00,,2013-02-24 09:01:00,
2013-02-24 02:11:00,32.0,18.0,-100.00,NNW,330,11.0,16.0,56,-99.99,,,0.00,,2013-02-24 09:11:00,
2013-02-24 02:21:00,32.0,18.0,-100.00,NNW,330,11.0,16.0,56,-99.99,,,0.00,,2013-02-24 09:21:00,
2013-02-24 02:31:00,32.0,18.0,-100.00,NNW,330,11.0,16.0,56,-99.99,,,0.00,,2013-02-24 09:31:00,
2013-02-24 02:41:00,32.0,18.0,-100.00,NNW,330,11.0,16.0,56,-99.99,,,0.00,,2013-02-24 09:41:00,
2013-02-24 02:51:00,32.0,18.0,-100.00,NW,310,6.0,11.0,56,-99.99,,,0.00,,2013-02-24 09:51:00,
2013-02-24 03:01:00,32.0,18.0,-100.00,NW,310,6.0,11.0,56,-99.99,,,0.00,,2013-02-24 10:01:00,
2013-02-24 03:11:00,31.0,17.0,-100.00,West,275,9.0,14.0,56,-99.99,,,0.00,,2013-02-24 10:11:00,
2013-02-24 03:21:00,31.0,17.0,-100.00,West,275,9.0,14.0,56,-99.99,,,0.00,,2013-02-24 10:21:00,
2013-02-24 03:31:00,31.0,17.0,-100.00,West,275,9.0,14.0,56,-99.99,,,0.00,,2013-02-24 10:31:00,
2013-02-24 03:41:00,31.0,17.0,-100.00,West,275,9.0,14.0,56,-99.99,,,0.00,,2013-02-24 10:41:00,
2013-02-24 03:51:00,31.0,17.0,-100.00,SW,220,6.0,11.0,56,-99.99,,,0.00,,2013-02-24 10:51:00,
2013-02-24 04:01:00,31.0,17.0,-100.00,SW,220,6.0,11.0,56,-99.99,,,0.00,,2013-02-24 11:01:00,
2013-02-24 04:11:00,30.0,16.0,-100.00,SW,225,6.0,9.0,56,-99.99,,,0.00,,2013-02-24 11:11:00,
2013-02-24 04:21:00,30.0,16.0,-100.00,SW,225,6.0,9.0,56,-99.99,,,0.00,,2013-02-24 11:21:00,
2013-02-24 04:32:00,30.0,16.0,-100.00,SW,225,6.0,9.0,56,-99.99,,,0.00,,2013-02-24 11:32:00,
2013-02-24 04:41:00,30.0,16.0,-100.00,SW,225,6.0,9.0,56,-99.99,,,0.00,,2013-02-24 11:41:00,
2013-02-24 04:52:00,30.0,15.0,-100.00,NW,315,6.0,13.0,53,-99.99,,,0.00,,2013-02-24 11:52:00,
2013-02-24 05:01:00,30.0,15.0,-100.00,NW,315,6.0,13.0,53,-99.99,,,0.00,,2013-02-24 12:01:00,
2013-02-24 05:11:00,30.0,15.0,-100.00,NW,315,6.0,13.0,53,-99.99,,,0.00,,2013-02-24 12:11:00,
2013-02-24 05:55:00,29.0,13.0,-100.00,NW,325,6.0,10.0,51,-99.99,,,0.00,,2013-02-24 12:55:00,
2013-02-24 06:08:00,29.0,13.0,-100.00,NW,325,6.0,10.0,51,-99.99,,,0.00,,2013-02-24 13:08:00,
2013-02-24 06:15:00,29.0,13.0,-100.00,NNW,330,5.0,11.0,52,-99.99,,,0.00,,2013-02-24 13:15:00,
2013-02-24 06:25:00,29.0,13.0,-100.00,NNW,330,5.0,11.0,52,-99.99,,,0.00,,2013-02-24 13:25:00,
2013-02-24 06:33:00,29.0,13.0,-100.00,NNW,330,5.0,11.0,52,-99.99,,,0.00,,2013-02-24 13:33:00,
2013-02-24 06:43:00,29.0,13.0,-100.00,NNW,330,5.0,11.0,52,-99.99,,,0.00,,2013-02-24 13:43:00,
2013-02-24 06:52:00,27.0,14.0,-100.00,West,280,3.0,7.0,56,-99.99,,,0.00,,2013-02-24 13:52:00,
2013-02-24 07:03:00,27.0,14.0,-100.00,West,280,3.0,7.0,56,-99.99,,,0.00,,2013-02-24 14:03:00,
2013-02-24 07:23:00,25.0,13.0,-100.00,West,265,2.0,4.0,60,-99.99,,,-99.99,,2013-02-24 14:23:00,
2013-02-24 07:32:00,25.0,13.0,-100.00,West,265,2.0,4.0,60,-99.99,,,-99.99,,2013-02-24 14:32:00,
2013-02-24 07:43:00,25.0,13.0,-100.00,West,265,2.0,4.0,60,-99.99,,,-99.99,,2013-02-24 14:43:00,
2013-02-24 07:54:00,26.0,15.0,-100.00,NNW,340,6.0,6.0,62,-99.99,,,0.00,,2013-02-24 14:54:00,
2013-02-24 08:02:00,26.0,15.0,-100.00,NNW,340,6.0,6.0,62,-99.99,,,0.00,,2013-02-24 15:02:00,
2013-02-24 08:12:00,27.0,14.0,-100.00,WSW,240,5.0,8.0,59,-99.99,,,0.00,,2013-02-24 15:12:00,
2013-02-24 08:22:00,27.0,14.0,-100.00,WSW,240,5.0,8.0,59,-99.99,,,0.00,,2013-02-24 15:22:00,
2013-02-24 08:32:00,27.0,14.0,-100.00,WSW,240,5.0,8.0,59,-99.99,,,0.00,,2013-02-24 15:32:00,
2013-02-24 08:42:00,27.0,14.0,-100.00,WSW,240,5.0,8.0,59,-99.99,,,0.00,,2013-02-24 15:42:00,
2013-02-24 08:52:00,31.0,14.0,-100.00,North,350,2.0,8.0,49,-99.99,,,0.00,,2013-02-24 15:52:00,
2013-02-24 09:01:00,31.0,14.0,-100.00,North,350,2.0,8.0,49,-99.99,,,0.00,,2013-02-24 16:01:00,
2013-02-24 09:11:00,33.0,14.0,-100.00,South,180,3.0,6.0,45,-99.99,,,0.00,,2013-02-24 16:11:00,
2013-02-24 09:21:00,33.0,14.0,-100.00,South,180,3.0,6.0,45,-99.99,,,0.00,,2013-02-24 16:21:00,
2013-02-24 09:31:00,33.0,14.0,-100.00,South,180,3.0,6.0,45,-99.99,,,0.00,,2013-02-24 16:31:00,
2013-02-24 09:41:00,33.0,14.0,-100.00,South,180,3.0,6.0,45,-99.99,,,0.00,,2013-02-24 16:41:00,
2013-02-24 09:52:00,35.0,14.0,-100.00,WSW,250,7.0,10.0,42,-99.99,,,0.00,,2013-02-24 16:52:00,
2013-02-24 10:01:00,35.0,14.0,-100.00,WSW,250,7.0,10.0,42,-99.99,,,0.00,,2013-02-24 17:01:00,
2013-02-24 10:11:00,35.0,15.0,-100.00,SW,235,6.0,10.0,43,-99.99,,,0.00,,2013-02-24 17:11:00,
2013-02-24 10:21:00,35.0,15.0,-100.00,SW,235,6.0,10.0,43,-99.99,,,0.00,,2013-02-24 17:21:00,
2013-02-24 10:32:00,35.0,15.0,-100.00,SW,235,6.0,10.0,43,-99.99,,,0.00,,2013-02-24 17:32:00,
2013-02-24 10:41:00,35.0,15.0,-100.00,SW,235,6.0,10.0,43,-99.99,,,0.00,,2013-02-24 17:41:00,
2013-02-24 10:52:00,36.0,15.0,-100.00,WSW,240,9.0,11.0,41,-99.99,,,0.00,,2013-02-24 17:52:00,
2013-02-24 11:01:00,36.0,15.0,-100.00,WSW,240,9.0,11.0,41,-99.99,,,0.00,,2013-02-24 18:01:00,
2013-02-24 11:11:00,39.0,15.0,-100.00,SW,220,2.0,8.0,38,-99.99,,,0.00,,2013-02-24 18:11:00,
2013-02-24 11:22:00,39.0,15.0,-100.00,SW,220,2.0,8.0,38,-99.99,,,0.00,,2013-02-24 18:22:00,
2013-02-24 11:31:00,39.0,15.0,-100.00,SW,220,2.0,8.0,38,-99.99,,,0.00,,2013-02-24 18:31:00,
2013-02-24 11:41:00,39.0,15.0,-100.00,SW,220,2.0,8.0,38,-99.99,,,0.00,,2013-02-24 18:41:00,
2013-02-24 12:11:00,41.0,13.0,-100.00,ENE,60,4.0,6.0,31,-99.99,,,0.00,,2013-02-24 19:11:00,
2013-02-24 12:22:00,41.0,13.0,-100.00,ENE,60,4.0,6.0,31,-99.99,,,0.00,,2013-02-24 19:22:00,
2013-02-24 12:32:00,41.0,13.0,-100.00,ENE,60,4.0,6.0,31,-99.99,,,0.00,,2013-02-24 19:32:00,
2013-02-24 12:41:00,41.0,13.0,-100.00,ENE,60,4.0,6.0,31,-99.99,,,0.00,,2013-02-24 19:41:00,
2013-02-24 12:51:00,43.0,13.0,-100.00,WSW,240,6.0,9.0,29,-99.99,,,0.00,,2013-02-24 19:51:00,
2013-02-24 13:02:00,43.0,13.0,-100.00,WSW,240,6.0,9.0,29,-99.99,,,0.00,,2013-02-24 20:02:00,
2013-02-24 13:11:00,45.0,13.0,-100.00,SW,235,6.0,11.0,27,-99.99,,,0.00,,2013-02-24 20:11:00,
2013-02-24 13:21:00,45.0,13.0,-100.00,SW,235,6.0,11.0,27,-99.99,,,0.00,,2013-02-24 20:21:00,
2013-02-24 13:31:00,45.0,13.0,-100.00,SW,235,6.0,11.0,27,-99.99,,,0.00,,2013-02-24 20:31:00,
2013-02-24 13:41:00,45.0,13.0,-100.00,SW,235,6.0,11.0,27,-99.99,,,0.00,,2013-02-24 20:41:00,
2013-02-24 13:52:00,44.0,12.0,-100.00,WNW,295,3.0,15.0,27,-99.99,,,0.00,,2013-02-24 20:52:00,
2013-02-24 14:01:00,44.0,12.0,-100.00,WNW,295,3.0,15.0,27,-99.99,,,0.00,,2013-02-24 21:01:00,
2013-02-24 14:11:00,42.0,13.0,-100.00,South,185,14.0,21.0,30,-99.99,,,0.00,,2013-02-24 21:11:00,
2013-02-24 14:21:00,42.0,13.0,-100.00,South,185,14.0,21.0,30,-99.99,,,0.00,,2013-02-24 21:21:00,
2013-02-24 14:32:00,42.0,13.0,-100.00,South,185,14.0,21.0,30,-99.99,,,0.00,,2013-02-24 21:32:00,
2013-02-24 14:41:00,42.0,13.0,-100.00,South,185,14.0,21.0,30,-99.99,,,0.00,,2013-02-24 21:41:00,
2013-02-24 14:52:00,42.0,12.0,-100.00,WSW,240,12.0,19.0,28,-99.99,,,0.00,,2013-02-24 21:52:00,
2013-02-24 15:01:00,42.0,12.0,-100.00,WSW,240,12.0,19.0,28,-99.99,,,0.00,,2013-02-24 22:01:00,
2013-02-24 15:11:00,41.0,11.0,-100.00,SSW,205,13.0,19.0,28,-99.99,,,0.00,,2013-02-24 22:11:00,
2013-02-24 15:21:00,41.0,11.0,-100.00,SSW,205,13.0,19.0,28,-99.99,,,0.00,,2013-02-24 22:21:00,
2013-02-24 15:31:00,41.0,11.0,-100.00,SSW,205,13.0,19.0,28,-99.99,,,0.00,,2013-02-24 22:31:00,
2013-02-24 15:41:00,41.0,11.0,-100.00,SSW,205,13.0,19.0,28,-99.99,,,0.00,,2013-02-24 22:41:00,
2013-02-24 15:51:00,42.0,11.0,-100.00,SW,230,11.0,21.0,28,-99.99,,,0.00,,2013-02-24 22:51:00,
2013-02-24 16:02:00,42.0,11.0,-100.00,SW,230,11.0,21.0,28,-99.99,,,0.00,,2013-02-24 23:02:00,
2013-02-24 16:11:00,40.0,10.0,-100.00,South,190,14.0,22.0,28,-99.99,,,0.00,,2013-02-24 23:11:00,
2013-02-24 16:21:00,40.0,10.0,-100.00,South,190,14.0,22.0,28,-99.99,,,0.00,,2013-02-24 23:21:00,
2013-02-24 16:31:00,40.0,10.0,-100.00,South,190,14.0,22.0,28,-99.99,,,0.00,,2013-02-24 23:31:00,
2013-02-24 16:41:00,40.0,10.0,-100.00,South,190,14.0,22.0,28,-99.99,,,0.00,,2013-02-24 23:41:00,
2013-02-24 16:52:00,40.0,9.0,-100.00,South,190,14.0,17.0,28,-99.99,,,0.00,,2013-02-24 23:52:00,
2013-02-24 17:01:00,40.0,9.0,-100.00,South,190,14.0,17.0,28,-99.99,,,0.00,,2013-02-25 00:01:00,
2013-02-24 17:11:00,40.0,10.0,-100.00,SSW,200,11.0,17.0,29,-99.99,,,0.00,,2013-02-25 00:11:00,
2013-02-24 17:21:00,40.0,10.0,-100.00,SSW,200,11.0,17.0,29,-99.99,,,0.00,,2013-02-25 00:21:00,
2013-02-24 17:31:00,40.0,10.0,-100.00,SSW,200,11.0,17.0,29,-99.99,,,0.00,,2013-02-25 00:31:00,
2013-02-24 17:41:00,40.0,10.0,-100.00,SSW,200,11.0,17.0,29,-99.99,,,0.00,,2013-02-25 00:41:00,
2013-02-24 17:51:00,39.0,11.0,-100.00,SSW,195,9.0,12.0,31,-99.99,,,0.00,,2013-02-25 00:51:00,
2013-02-24 18:01:00,39.0,11.0,-100.00,SSW,195,9.0,12.0,31,-99.99,,,0.00,,2013-02-25 01:01:00,
2013-02-24 18:11:00,38.0,9.0,-100.00,SSW,200,6.0,10.0,30,-99.99,,,0.00,,2013-02-25 01:11:00,
2013-02-24 18:21:00,38.0,9.0,-100.00,SSW,200,6.0,10.0,30,-99.99,,,0.00,,2013-02-25 01:21:00,
2013-02-24 18:31:00,38.0,9.0,-100.00,SSW,200,6.0,10.0,30,-99.99,,,0.00,,2013-02-25 01:31:00,
2013-02-24 18:42:00,38.0,9.0,-100.00,SSW,200,6.0,10.0,30,-99.99,,,0.00,,2013-02-25 01:42:00,
2013-02-24 18:51:00,34.0,8.0,-100.00,SW,220,4.0,7.0,33,-99.99,,,0.00,,2013-02-25 01:51:00,
2013-02-24 19:01:00,34.0,8.0,-100.00,SW,220,4.0,7.0,33,-99.99,,,0.00,,2013-02-25 02:01:00,
2013-02-24 19:11:00,34.0,9.0,-100.00,SW,215,6.0,8.0,34,-99.99,,,0.00,,2013-02-25 02:11:00,
2013-02-24 19:21:00,34.0,9.0,-100.00,SW,215,6.0,8.0,34,-99.99,,,0.00,,2013-02-25 02:21:00,
2013-02-24 19:31:00,34.0,9.0,-100.00,SW,215,6.0,8.0,34,-99.99,,,0.00,,2013-02-25 02:31:00,
2013-02-24 19:41:00,34.0,9.0,-100.00,SW,215,6.0,8.0,34,-99.99,,,0.00,,2013-02-25 02:41:00,
2013-02-24 19:52:00,34.0,8.0,-100.00,SW,230,6.0,7.0,34,-99.99,,,0.00,,2013-02-25 02:52:00,
2013-02-24 20:01:00,34.0,8.0,-100.00,SW,230,6.0,7.0,34,-99.99,,,0.00,,2013-02-25 03:01:00,
2013-02-24 20:11:00,33.0,8.0,-100.00,SW,230,6.0,7.0,35,-99.99,,,0.00,,2013-02-25 03:11:00,
2013-02-24 20:21:00,33.0,8.0,-100.00,SW,230,6.0,7.0,35,-99.99,,,0.00,,2013-02-25 03:21:00,
2013-02-24 20:31:00,33.0,8.0,-100.00,SW,230,6.0,7.0,35,-99.99,,,0.00,,2013-02-25 03:31:00,
2013-02-24 20:41:00,33.0,8.0,-100.00,SW,230,6.0,7.0,35,-99.99,,,0.00,,2013-02-25 03:41:00,
2013-02-24 21:11:00,31.0,10.0,-100.00,West,260,7.0,9.0,40,-99.99,,,0.00,,2013-02-25 04:11:00,
2013-02-24 21:21:00,31.0,10.0,-100.00,West,260,7.0,9.0,40,-99.99,,,0.00,,2013-02-25 04:21:00,
2013-02-24 21:31:00,31.0,10.0,-100.00,West,260,7.0,9.0,40,-99.99,,,0.00,,2013-02-25 04:31:00,
2013-02-24 21:41:00,31.0,10.0,-100.00,West,260,7.0,9.0,40,-99.99,,,0.00,,2013-02-25 04:41:00,
2013-02-24 21:51:00,30.0,11.0,-100.00,SW,235,4.0,9.0,44,-99.99,,,0.00,,2013-02-25 04:51:00,
2013-02-24 22:01:00,30.0,11.0,-100.00,SW,235,4.0,9.0,44,-99.99,,,0.00,,2013-02-25 05:01:00,
2013-02-24 22:11:00,29.0,11.0,-100.00,WSW,240,4.0,8.0,47,-99.99,,,0.00,,2013-02-25 05:11:00,
2013-02-24 22:22:00,29.0,11.0,-100.00,WSW,240,4.0,8.0,47,-99.99,,,0.00,,2013-02-25 05:22:00,
2013-02-24 22:31:00,29.0,11.0,-100.00,WSW,240,4.0,8.0,47,-99.99,,,0.00,,2013-02-25 05:31:00,
2013-02-24 22:41:00,29.0,11.0,-100.00,WSW,240,4.0,8.0,47,-99.99,,,0.00,,2013-02-25 05:41:00,
2013-02-24 22:52:00,29.0,13.0,-100.00,SW,225,4.0,9.0,50,-99.99,,,0.00,,2013-02-25 05:52:00,
2013-02-24 23:02:00,29.0,13.0,-100.00,SW,225,4.0,9.0,50,-99.99,,,0.00,,2013-02-25 06:02:00,
2013-02-24 23:11:00,28.0,13.0,-100.00,SW,230,6.0,7.0,53,-99.99,,,0.00,,2013-02-25 06:11:00,
2013-02-24 23:21:00,28.0,13.0,-100.00,SW,230,6.0,7.0,53,-99.99,,,0.00,,2013-02-25 06:21:00,
2013-02-24 23:31:00,28.0,13.0,-100.00,SW,230,6.0,7.0,53,-99.99,,,0.00,,2013-02-25 06:31:00,
2013-02-24 23:41:00,28.0,13.0,-100.00,SW,230,6.0,7.0,53,-99.99,,,0.00,,2013-02-25 06:41:00,
2013-02-24 23:51:00,27.0,13.0,-100.00,SW,220,4.0,6.0,55,-99.99,,,0.00,,2013-02-25 06:51:00,